FLOCK 3P-7

Last updated on Wed Feb 14 2018 16:20:22 GMT+0000 (Coordinated Universal Time)

1 41970U 17008Y 18044.90452762 .00001173 00000-0 51523-4 0 9991 2 41970 97.4659 110.4490 0009884 71.9662 288.2651 15.23898304 55175
UTC large
Height (km)
Speed (km/s)
/
Latitude / Longitude
Inclination (degrees)
Orbital Period (minutes)
Azimuth
Elevation
Range (km)
Doppler Factor

Next 0 passes for location: London (51.5072 / 0.1276)

Sorry there are no passes over London.